Location: Burgwalden
(48.2830°N, 10.7576°E)
Time: 22:41:39
(UTC+00:00)

Cosmos 2219 Rocket - Pass Details

Date: 26 September 2023
Orbit: 826 x 848 km, 71.0° (Epoch: 08 December)

Event Time Altitude Azimuth Distance (km) Brightness Sun altitude
Rises 03:17:35 0° 333° (NNW) 3,393 5.3 -18.9°
Reaches altitude 10° 03:20:03 10° 336° (NNW) 2,459 4.6 -18.5°
Maximum altitude 03:25:40 67° 59° (ENE) 910 2.6 -17.6°
Drops below altitude 10° 03:31:17 10° 142° (SE) 2,458 4.9 -16.8°
Sets 03:33:45 0° 145° (SE) 3,392 5.6 -16.4°
